Winslow, AZ

5:45 AM MST on June 25, 2017 (GMT -0700)
Winslow-Lindbergh Regional

Weather History for KINW - February, 2013

Change the Weather History Date:

Sunday, February 3, 2013

  Actual Average Record
Temperature  
Mean Temperature 40 °F 38 °F  
Max Temperature 48 °F 53 °F 68 °F (1998)
Min Temperature 32 °F 23 °F -7 °F (1939)
Degree Days  
Heating Degree Days 25 27  
Month to date heating degree days 77 82  
Since 1 July heating degree days 2791 2885  
Cooling Degree Days 0 0  
Month to date cooling degree days 0 0  
Year to date cooling degree days 0 0  
Moisture  
Dew Point 28 °F    
Average Humidity 64    
Maximum Humidity 82    
Minimum Humidity 45    
Precipitation  
Precipitation 0.00 in 0.02 in 0.25 in (1988)
Month to date precipitation 0.00 0.05  
Year to date precipitation 0.73 0.57  
Sea Level Pressure  
Sea Level Pressure 30.16 in    
Wind  
Wind Speed 3 mph (West)    
Max Wind Speed 10 mph    
Max Gust Speed 14 mph    
Visibility 10 miles    
Events      
T = Trace of Precipitation, MM = Missing Value Source: NWS Daily Summary

Daily Weather History Graph

Daily Weather History Graph

Search for Another Location

Airport or City:

Trip Planner

Search our weather history database for the weather conditions in past years. The results will help you decide how hot, cold, wet, or windy it might be!

Date:

Astronomy

Feb. 03, 2013 Rise Set
Actual Time 7:19 AM MST 5:54 PM MST
Civil Twilight 6:53 AM MST 6:20 PM MST
Nautical Twilight 6:23 AM MST 6:50 PM MST
Astronomical Twilight 5:53 AM MST 7:20 PM MST
Moon 12:50 AM MST (2/3) 11:35 AM MST (2/3)
Length of Visible Light 11h 27m
Length of Day
10h 34m
Waning Gibbous, 48% of the Moon is Illuminated
Feb 3
Waning Gibbous
Feb 10
New
Feb 17
First Quarter
Feb 25
Full
Mar 4
Last Quarter

Hourly Weather History & Observations

Time (MST) Temp. Windchill Dew Point Humidity Pressure Visibility Wind Dir Wind Speed Gust Speed Precip Events Conditions
1:56 AM 33.1 °F - 26.1 °F 75% 30.27 in 10.0 mi Calm Calm - N/A   Clear
2:56 AM 33.1 °F - 27.0 °F 78% 30.25 in 10.0 mi Calm Calm - N/A   Clear
3:56 AM 33.1 °F - 28.0 °F 82% 30.22 in 10.0 mi Calm Calm - N/A   Clear
4:56 AM 33.1 °F - 27.0 °F 78% 30.20 in 10.0 mi Calm Calm - N/A   Clear
5:56 AM 33.8 °F - 26.6 °F 75% 30.21 in 10.0 mi Calm Calm - N/A   Clear
6:56 AM 34.0 °F 28.0 °F 27.0 °F 75% 30.21 in 10.0 mi ESE 6.9 mph - N/A   Mostly Cloudy
7:56 AM 35.1 °F 29.3 °F 27.0 °F 72% 30.22 in 10.0 mi SE 6.9 mph - N/A   Overcast
8:56 AM 36.0 °F 32.1 °F 27.0 °F 70% 30.22 in 10.0 mi ESE 4.6 mph - N/A   Overcast
9:56 AM 39.0 °F - 27.0 °F 62% 30.24 in 10.0 mi Calm Calm - N/A   Overcast
10:56 AM 41.0 °F - 27.0 °F 57% 30.23 in 10.0 mi Calm Calm - N/A   Overcast
11:56 AM 43.0 °F - 27.0 °F 53% 30.20 in 10.0 mi Calm Calm - N/A   Overcast
12:56 PM 45.0 °F - 26.1 °F 48% 30.15 in 10.0 mi Calm Calm - N/A   Overcast
1:56 PM 46.0 °F 41.9 °F 27.0 °F 47% 30.11 in 10.0 mi NW 8.1 mph - N/A   Overcast
2:56 PM 46.0 °F - 27.0 °F 47% 30.09 in 10.0 mi Calm Calm - N/A   Overcast
3:56 PM 46.9 °F - 27.0 °F 46% 30.09 in 10.0 mi West 4.6 mph - N/A   Overcast
4:56 PM 46.4 °F 43.5 °F 26.6 °F 46% 30.09 in 10.0 mi West 5.8 mph - N/A   Overcast
5:56 PM 46.0 °F 42.5 °F 28.0 °F 50% 30.09 in 10.0 mi WNW 6.9 mph - N/A   Overcast
6:56 PM 45.0 °F 41.2 °F 28.9 °F 53% 30.11 in 10.0 mi West 6.9 mph - N/A   Overcast
7:56 PM 44.1 °F 40.1 °F 30.9 °F 60% 30.11 in 10.0 mi WNW 6.9 mph - N/A   Overcast
8:56 PM 43.0 °F 41.3 °F 32.0 °F 65% 30.12 in 10.0 mi NW 3.5 mph - N/A   Overcast
9:56 PM 39.0 °F 36.8 °F 30.0 °F 70% 30.13 in 10.0 mi WSW 3.5 mph - N/A   Mostly Cloudy
10:56 PM 34.0 °F - 28.0 °F 79% 30.13 in 10.0 mi Calm Calm - N/A   Clear
11:56 PM 33.1 °F 27.7 °F 27.0 °F 78% 30.12 in 10.0 mi West 5.8 mph - N/A   Clear